This is the latest recevied weather packets stored in our database for station/object KE8DDT-7. If no packets are shown the sender has not sent any weather packets the latest 10 day(s).
| Time | Temp. | Humidity | Pressure | Rain* | Wind** | Luminosity | Snow |
|---|---|---|---|---|---|---|---|
| 1777724217 | 2.22° C | 73% | 1009.9 hPa | 0 mm | - | 299 W/m² | - |
| 1777723479 | 1.67° C | 74% | 1009.7 hPa | 0 mm | - | 42 W/m² | - |
| 1777723178 | 1.67° C | 75% | 1009.6 hPa | 0 mm | - | 39 W/m² | - |
| 1777722879 | 1.11° C | 75% | 1009.7 hPa | 0 mm | - | 37 W/m² | - |
| 1777721985 | 1.11° C | 76% | 1009.6 hPa | 0 mm | - | 33 W/m² | - |
| 1777721686 | 1.11° C | 76% | 1009.6 hPa | 0 mm | - | 33 W/m² | - |
| 1777721385 | 0.56° C | 76% | 1009.6 hPa | 0 mm | - | 32 W/m² | - |
| 1777720786 | 0.56° C | 76% | 1009.5 hPa | 0 mm | - | 28 W/m² | - |
| 1777720185 | 0.56° C | 76% | 1009.4 hPa | 0 mm | - | 25 W/m² | - |
| 1777719585 | 0.56° C | 76% | 1009.4 hPa | 0 mm | - | 21 W/m² | - |
| 1777719285 | 0.56° C | 75% | 1009.3 hPa | 0 mm | - | 18 W/m² | - |
| 1777718985 | 0.56° C | 75% | 1009.3 hPa | 0 mm | - | 14 W/m² | - |
| 1777718497 | 1.11° C | 75% | 1009.3 hPa | 0 mm | - | 7 W/m² | - |
| 1777718197 | 1.11° C | 74% | 1009.3 hPa | 0 mm | - | 5 W/m² | - |
| 1777717897 | 1.11° C | 74% | 1009.3 hPa | 0 mm | - | 0 W/m² | - |
| 1777717597 | 1.11° C | 74% | 1009.3 hPa | 0 mm | - | 0 W/m² | - |
| 1777716997 | 1.11° C | 73% | 1009.2 hPa | 0 mm | - | 0 W/m² | - |
| 1777716697 | 1.11° C | 73% | 1009.2 hPa | 0 mm | - | 0 W/m² | - |
| 1777716397 | 1.11° C | 72% | 1009.2 hPa | 0 mm | - | 0 W/m² | - |
| 1777716097 | 1.11° C | 72% | 1009.1 hPa | 0 mm | - | 0 W/m² | - |
| 1777715797 | 1.67° C | 72% | 1009.1 hPa | 0 mm | - | 0 W/m² | - |
| 1777715497 | 1.67° C | 72% | 1009.2 hPa | 0 mm | - | 0 W/m² | - |
| 1777715199 | 1.67° C | 72% | 1009.1 hPa | 0 mm | - | 0 W/m² | - |
| 1777715197 | 1.67° C | 72% | 1009.1 hPa | 0 mm | - | 0 W/m² | - |
| 1777714897 | 1.67° C | 72% | 1009.1 hPa | 0 mm | - | 0 W/m² | - |
* Rain latest hour (hover to see other rain measurements)
** Current wind speed in m/s (hover to see current wind gust speed)